MOONLIGHTER

Last updated on Wed Feb 07 2024 00:02:07 GMT+0000 (Coordinated Universal Time)

1 57316U 98067VU 24036.68961070 .02634135 11789-4 15511-2 0 9993 2 57316 51.6198 225.8334 0011307 279.6991 80.2749 16.17750464 33586

Satellite not in orbit